AirNav   Everest Fuels
 
 710 users online  

1IL3 Alton Memorial Hospital Heliport
Alton, Illinois, USA

GOING TO ALTON?


FAA INFORMATION EFFECTIVE 16 JULY 2020

Location

FAA Identifier: 1IL3
Lat/Long: 38-53-55.0600N 090-09-34.8800W
38-53.917667N 090-09.581333W
38.8986278,-90.1596889
(estimated)
Elevation: 525 ft. / 160 m (estimated)
Variation: 02E (1990)
From city: 1 mile SW of ALTON, IL
Time zone: UTC -5 (UTC -6 during Standard Time)
Zip code: 62002

Heliport Operations

Heliport use: Private use. Permission required prior to landing
Activation date: 09/1990
Control tower: no
ARTCC: KANSAS CITY CENTER
FSS: SAINT LOUIS FLIGHT SERVICE STATION
Attendance: CONTINUOUS
Wind indicator: lighted
Segmented circle: no
Lights: FOR PERIMETER AND RLLS CALL 618-463-7311.
Beacon: white-green-yellow (heliport)

Heliport Communications

WX AWOS-3 at ALN (5 nm E): 128.0 (618-259-7231)
WX ASOS at SET (13 nm W): 118.075 (636-250-4590)
WX ASOS at STL (13 nm SW): 125.025 (314-890-4790)
WX ASOS at CPS (20 nm S): PHONE 618-332-0001

Nearby radio navigation aids

VOR radial/distance  VOR name  Freq  Var
TOYr306/14.8TROY VORTAC116.0004E
STLr080/15.2ST LOUIS VORTAC117.4001E
FTZr067/39.9FORISTELL VORTAC110.8005E

 
NDB name  Hdg/Dist  Freq  Var  ID
CIVIC MEMORIAL276/4.826301WCVM -.-. ...- --

Heliport Services

Runway Information

Helipad H1

Dimensions: 50 x 50 ft. / 15 x 15 m
Surface: concrete, in good condition
Runway edge lights: PERI
Latitude: 38-53.917667N
Longitude: 090-09.581333W
Elevation: 525.0 ft.
Traffic pattern: leftleft
Approach lights: RLLS

Heliport Ownership and Management from official FAA records

Ownership: Privately-owned
Owner: ALTON MEMORIAL HOSPITAL
ONE MEMORIAL DRIVE
ALTON, IL 62002
Phone 618-463-7311
Manager: RON GREENWOOD
ONE MEMORIAL DRIVE
ALTON, IL 62002
Phone 618-463-7307
RON GREENWOOD 618-463-7307

Additional Remarks

FOR CD CTC ST LOUIS APCH AT 314-890-1018.

Instrument Procedures

There are no published instrument procedures at 1IL3.

Some nearby airports with instrument procedures:

KALN - St Louis Regional Airport (5 nm E)
KSET - St Charles County Smartt Airport (13 nm W)
KSTL - St Louis Lambert International Airport (13 nm SW)
1H0 - Creve Coeur Airport (19 nm SW)
KCPS - St Louis Downtown Airport (20 nm S)
 
Loc | Ops | Rwys | IFR | FBO | Links
Com | Nav | Svcs | Stats | Notes
Area around 1IL3 (Alton Memorial Hospital Heliport)
 
Road maps at: MapQuest Bing Google
 
Aerial photo
No photo
 
Sectional chart

 
Airport distance calculator
Flying to Alton Memorial Hospital Heliport? Find the distance to fly.

From to 1IL3

Sunrise and sunset
Times for 04-Aug-2020
 Local
(UTC-5)
 Zulu
(UTC)
Morning civil twilight05:3710:37
Sunrise06:0611:06
Sunset20:0701:07
Evening civil twilight20:3601:36

Current date and time
Zulu (UTC)  05-Aug-2020 03:58:38
Local (UTC-5)  04-Aug-2020 22:58:38
 
METAR
KALN 
6nm E 
050335Z AUTO 00000KT 10SM CLR 14/14 A3010 RMK AO2 T01430143
KSET 
13nm W 
050354Z AUTO 00000KT 10SM CLR 17/14 A3009 RMK AO2 SLP186 T01670144
KSTL 
13nm SW 
050351Z 00000KT 10SM FEW250 19/13 A3010 RMK AO2 SLP187 T01890133
KCPS 
20nm S 
050353Z AUTO 00000KT 10SM CLR 16/15 A3010 RMK AO2 SLP189 T01560150 PNO $
TAF
KSTL 
13nm SW 
042054Z 0421/0524 01010KT P6SM FEW030 BKN070 FM050200 VRB04KT P6SM SKC FM051600 VRB03KT P6SM BKN050
KCPS 
20nm S 
041720Z 0418/0518 36008KT P6SM BKN040 TEMPO 0418/0420 BKN025 FM050200 VRB04KT P6SM SKC FM051000 VRB03KT 4SM BR SKC FM051300 VRB03KT P6SM SKC
NOTAMs
Click for the latest NOTAMs
NOTAMs are issued by the DoD/FAA and will open in a separate window not controlled by AirNav.

 

 
 

Would you like to see your business listed on this page?

 If your business provides an interesting product or service to pilots, flight crews, aircraft, or users of the Alton Memorial Hospital Heliport, you should consider listing it here.  To start the listing process, click on the button below
 
Add a business
 

Other Pages about Alton Memorial Hospital Heliport

Update a link
 
Copyright © AirNav, LLC. All rights reserved. Privacy Policy  Contact